Home > Products > State Listing > Oregon Data
Latest:
 RWROR |
  [top]

000
ASUS46 KPQR 290510
RWROR

OREGON REGIONAL WEATHER ROUNDUP
NATIONAL WEATHER SERVICE PORTLAND OR
1000 PM PDT SAT MAY 28 2016

NOTE: "FAIR" INDICATES FEW OR NO CLOUDS BELOW 12,000 FEET WITH
NO SIGNIFICANT WEATHER AND/OR OBSTRUCTIONS TO VISIBILITY.

ORZ001>013-290600-
NORTHWEST OREGON


CITY           SKY/WX    TMP DP  RH WIND       PRES   REMARKS
ASTORIA        CLOUDY    55  54  96 SW5       30.06S
NEWPORT        MOCLDY    54  50  87 CALM      30.12R
PORTLAND       MOCLDY    61  50  67 NW12      30.05R
VANCOUVER WA   PTCLDY    60  50  69 NW6       30.04R
SCAPPOOSE      MOCLDY    59  48  67 VRB3      30.04R
HILLSBORO      CLOUDY    60  48  64 NW10      30.04R
AURORA         PTCLDY    59  48  67 W5        30.05R
MCMINNVILLE    CLEAR     57  48  72 W9        30.06R
SALEM          CLEAR     59  46  62 W8        30.05R
CORVALLIS        N/A     57  45  62 NW6       30.07R
EUGENE         PTCLDY    57  45  64 NE3       30.06R
$$

ORZ021-028-290600-
SOUTHWEST OREGON


CITY           SKY/WX    TMP DP  RH WIND       PRES   REMARKS
NORTH BEND     CLEAR     55  50  82 N5        30.11S
BROOKINGS      CLEAR     57  46  66 CALM      30.01R
ROSEBURG       CLEAR     65  38  36 N5        30.05R
SEXTON SUMMIT  CLEAR     51  42  71 N12       30.07R
MEDFORD        CLEAR     66  43  43 N5        30.01R
$$

ORZ014>016-041-290600-
COLUMBIA GORGE


CITY           SKY/WX    TMP DP  RH WIND       PRES   REMARKS
TROUTDALE      MOCLDY    62  49  62 VRB5      30.03R
HOOD RIVER     PTCLDY    61  45  55 NW5       30.01R
THE DALLES     PTCLDY    67  42  40 W13       29.98R
$$

ORZ029>031-041-044-049-050-061>064-502-503-505>511-290600-
EASTERN OREGON


CITY           SKY/WX    TMP DP  RH WIND       PRES   REMARKS
REDMOND        CLEAR     59  41  51 NW9       30.03R
BEND           CLEAR     59  41  51 NW6       30.04R
PRINEVILLE     CLEAR     55  41  58 W5        30.03R
KLAMATH FALLS  CLEAR     59  39  47 NW12      30.03R
LAKEVIEW       CLEAR     48  36  61 N10       30.06R
HERMISTON      CLEAR     60  42  51 S7        29.94S
PENDLETON      CLEAR     56  40  55 E10       29.98R
JOHN DAY         N/A    N/A N/A N/A MISG        N/A
MEACHAM        PTCLDY    46  38  73 CALM      30.05R HAZE
LA GRANDE      CLEAR     55  36  47 CALM      30.01R
BAKER CITY     PTCLDY    53  39  59 SW5       30.04R
BURNS          PTCLDY    45  31  58 W5        30.04R
ROME             N/A     55  23  28 E9        30.02R
ONTARIO        PTCLDY    58  38  47 CALM      30.01R
$$





000
ASUS46 KPQR 282110
RWROR

OREGON REGIONAL WEATHER ROUNDUP
NATIONAL WEATHER SERVICE PORTLAND OR
200 PM PDT SAT MAY 28 2016

NOTE: "FAIR" INDICATES FEW OR NO CLOUDS BELOW 12,000 FEET WITH
NO SIGNIFICANT WEATHER AND/OR OBSTRUCTIONS TO VISIBILITY.

ORZ001>013-282200-
NORTHWEST OREGON


CITY           SKY/WX    TMP DP  RH WIND       PRES   REMARKS
ASTORIA        CLOUDY    60  50  69 SW16G23   30.07F
NEWPORT        MOSUNNY   59  48  67 W7        30.13F
PORTLAND       PTSUNNY   68  39  34 VRB6      30.07F
VANCOUVER WA   PTSUNNY   66  42  41 SW3       30.06F
SCAPPOOSE      PTSUNNY   66  47  50 SE8       30.06F
HILLSBORO      PTSUNNY   67  42  40 VRB3      30.06F
AURORA         PTSUNNY   67  43  41 VRB5      30.08F
MCMINNVILLE    PTSUNNY   68  43  40 S8        30.07F
SALEM          PTSUNNY   69  38  32 SW5       30.06F
CORVALLIS        N/A     72  45  37 CALM      30.08F
EUGENE         PTSUNNY   69  39  33 CALM      30.07F
$$

ORZ021-028-282200-
SOUTHWEST OREGON


CITY           SKY/WX    TMP DP  RH WIND       PRES   REMARKS
NORTH BEND     SUNNY     63  46  55 N15       30.10F
BROOKINGS      SUNNY     72  48  42 NW14G20   29.97F
ROSEBURG       SUNNY     73  39  29 VRB7      30.04F
SEXTON SUMMIT  SUNNY     63  40  42 VRB3      30.08F
MEDFORD        SUNNY     75  35  23 NE5       30.00F
$$

ORZ014>016-041-282200-
COLUMBIA GORGE


CITY           SKY/WX    TMP DP  RH WIND       PRES   REMARKS
TROUTDALE      PTSUNNY   68  43  40 VRB7      30.07F
THE DALLES     MOSUNNY   72  39  30 N8        30.01F
$$

ORZ029>031-041-044-049-050-061>064-502-503-505>511-282200-
EASTERN OREGON


CITY           SKY/WX    TMP DP  RH WIND       PRES   REMARKS
REDMOND        SUNNY     67  30  25 W7        30.04F
BEND           SUNNY     64  30  27 CALM      30.04F
PRINEVILLE     SUNNY     64  36  34 VRB5G13   30.05F
KLAMATH FALLS  SUNNY     68  31  25 E7        30.04F
LAKEVIEW       SUNNY     64  32  29 NE5       30.07F
HERMISTON      SUNNY     72  35  25 NW10G16   30.02F
PENDLETON      SUNNY     68  34  28 W7G18     30.03F
JOHN DAY         N/A    N/A N/A N/A MISG        N/A
MEACHAM        MOSUNNY   59  33  37 VRB5      30.08F
LA GRANDE      SUNNY     66  36  32 E8        30.04F
BAKER CITY     SUNNY     64  32  30 VRB6      30.06F
BURNS          SUNNY     62  29  28 MISG      30.08F
ROME             N/A     71  22  15 VRB3      30.04F
ONTARIO        SUNNY     70  30  22 VRB6      30.06F
$$





    US Dept of Commerce
    National Oceanic and Atmospheric Administration
    National Weather Service
    1325 East West Highway
    Silver Spring, MD 20910
    Page Author: NWS Internet Services Team
Disclaimer
Information Quality
Credits
Glossary
Privacy Policy
Freedom of Information Act (FOIA)
About Us
Career Opportunities